METEOR 1-17 DEB

Satellite information

Favourite Embed

Satellite Type and Status

DEBRISIN ORBIT

Key statistics

Satellite METEOR 1-17 DEB at a glance.

Uptime

18862

Days in orbit

Revolutions

≈ 14.2

Per day

Orbit

LEO

Low Earth Orbit

Inclination

81.2

Latest

Satellite identification and parameters

Extended collection of information and parameters for METEOR 1-17 DEB.

Object identification

Identified? True

Debris? True

Object name: METEOR 1-17 DEB

International designator: 1974-025D

Object number (NORAD): 57538

Object ID (CCSDS): 57538

Country: COMMONWEALTH OF INDEPENDENT STATES (CIS)

Current information (Y/N): Y

RCS size: SMALL

Orbital parameters

Period: 101.163 minutes

Inclination: 81.1914 deg

SMA: 7191.844 km

Apoapsis: 822.313 km

Periapsis: 805.105 km

RAAN: 109.3417 deg

Eccentricy: 0.0011963

Argument of periapsis: 91.4261 deg

Mean anomaly: 268.8288 deg

Mean motion: 14.23450496 rev/day

Mean motion (dot): 0.00009388 rev/day2

B* drag term: 0.0041227 1/REarth

Two-line elements (TLE)

Creation date: Dec. 12, 2025, 7:16 a.m.

Reference frame: TEME

Reference center: EARTH

Epoch: Dec. 11, 2025, 7:08 p.m. UTC

TLE line 0: 0 METEOR 1-17 DEB

TLE line 1: 1 57538U 74025D 25345.79729248 .00009388 00000-0 41227-2 0 9999

TLE line 2: 2 57538 81.1914 109.3417 0011963 91.4261 268.8288 14.23450496124054

Live tracking on map

Real-time ground track for satellite METEOR 1-17 DEB.

In-orbit conjunctions

A list of the most updated potential collisions computed for object METEOR 1-17 DEB.

Target Orbit TCA Probability of collision Miss distance Type
METEOR 2-8 DEB LEO 2025-11-07 07:02:34 0.0001509279 53.0 (m) DEBRIS
FENGYUN 1C DEB SSO 2025-01-06 01:06:24 0.000117314 91.0 (m) DEBRIS
CZ-6A DEB LEO 2024-12-14 00:13:48 0.0001301431 658.0 (m) DEBRIS
CZ-6A DEB SSO 2024-11-14 17:13:23 0.0001004254 732.0 (m) DEBRIS
FENGYUN 1C DEB SSO 2024-11-11 13:08:58 0.0004572619 237.0 (m) DEBRIS

Associated space launch

The Meteor-1 series was the first series of Soviet meteorological satellites.

METEOR 1-17 DEB was lifted into orbit during the mission ‘Vostok 8A92M | Meteor-1 17 (22L)’, on board a Vostok 8A92M space rocket.

The launch took place on April 24, 1974, 11:50 a.m. from 43/4 (43R).

For more information about the launch, click the button.

Launch to space Vostok 8A92M | Meteor-1 17 (22L)
Vostok 8A92M | Meteor-1 17 (22L)

Agency: N/A

Status: Launch Successful

Launch date: April 24, 1974, 11:50 a.m. UTC

Rocket: Vostok 8A92M

Launch pad: 43/4 (43R)

Location: Plesetsk Cosmodrome, Russian Federation

...

Latest news about this satellite

There are no fresh news available about this satellite. Check back as we update our databases every day.


Newsletter sign-up

Weekly statistics, charts and insights to help you stay on top of the space industry.